Weather History for Mandan, ND

Change the Weather History Date:

Monday, May 12, 2014

  Actual Average (KBIS) Record (KBIS)
Temperature  
Mean Temperature 44 °F 54 °F  
Max Temperature 53 °F 67 °F 92 °F (1880)
Min Temperature 35 °F 41 °F 20 °F (1888)
Degree Days  
Heating Degree Days 21 11  
Month to date heating degree days 154  
Since 1 July heating degree days 8309  
Cooling Degree Days 0 0  
Month to date cooling degree days 0  
Year to date cooling degree days 1  
Moisture  
Dew Point 29 °F    
Average Humidity 59    
Maximum Humidity 87    
Minimum Humidity 35    
Precipitation  
Precipitation 0.00 in 0.07 in 0.78 in (2005)
Month to date precipitation 0.81  
Year to date precipitation 3.88  
Snow  
Snow 0.00 in 0.00 in T in (2005)
Month to date snowfall 0.3  
Since 1 July snowfall 51.1  
Snow Depth -    
Sea Level Pressure  
Sea Level Pressure 30.13 in    
Wind  
Wind Speed 21 mph (NNW)    
Max Wind Speed 34 mph    
Max Gust Speed 43 mph    
Visibility 8 miles    
Events      
T = Trace of Precipitation, MM = Missing Value Source: NWS Daily Summary

Daily Weather History Graph

Daily Weather History Graph

Search for Another Location

Airport:

Trip Planner

Search our weather history database for the weather conditions in past years. The results will help you decide how hot, cold, wet, or windy it might be!

Date:

Astronomy

May. 12, 2014 Rise Set
Actual Time 6:12 AM CDT 9:07 PM CDT
Civil Twilight 5:37 AM CDT 9:43 PM CDT
Nautical Twilight 4:52 AM CDT 10:28 PM CDT
Astronomical Twilight 3:58 AM CDT 11:23 PM CDT
Moon 7:00 PM CDT (5/12) 5:02 AM CDT (5/12)
Length of Visible Light 16h 06m
Length of Day
14h 55m
Waxing Gibbous, 95% of the Moon is Illuminated
May 12
Waxing Gibbous
May 14
Full
May 21
Last Quarter
May 28
New
Jun 5
First Quarter

Hourly Weather History & Observations

Time (CDT) Temp. Windchill Dew Point Humidity Pressure Visibility Wind Dir Wind Speed Gust Speed Precip Events Conditions
12:15 AM 37.4 °F 27.2 °F 32.0 °F 81% 30.12 in 10.0 mi North 19.6 mph 25.3 mph N/A   Clear
12:35 AM 37.4 °F 26.9 °F 32.0 °F 81% 30.11 in 10.0 mi North 20.7 mph 27.6 mph N/A   Clear
12:55 AM 37.4 °F 28.2 °F 32.0 °F 81% 30.10 in 10.0 mi North 16.1 mph - N/A   Clear
1:15 AM 37.4 °F 27.8 °F 32.0 °F 81% 30.10 in 10.0 mi North 17.3 mph 24.2 mph N/A   Clear
1:35 AM 37.4 °F 27.5 °F 32.0 °F 81% 30.11 in 10.0 mi NNW 18.4 mph 24.2 mph N/A   Clear
1:55 AM 37.4 °F 27.5 °F 32.0 °F 81% 30.11 in 10.0 mi NNW 18.4 mph - N/A   Clear
2:15 AM 35.6 °F 25.9 °F 32.0 °F 87% 30.12 in 10.0 mi NNW 16.1 mph - N/A   Clear
2:35 AM 35.6 °F 25.2 °F 32.0 °F 87% 30.11 in 10.0 mi NNW 18.4 mph - N/A   Clear
2:55 AM 35.6 °F 24.5 °F 32.0 °F 87% 30.11 in 10.0 mi North 20.7 mph - N/A   Clear
3:15 AM 37.4 °F 26.9 °F 32.0 °F 81% 30.10 in 10.0 mi NNW 20.7 mph 26.5 mph N/A   Clear
3:35 AM 37.4 °F 26.6 °F 32.0 °F 81% 30.08 in 10.0 mi North 21.9 mph 26.5 mph N/A   Clear
3:55 AM 35.6 °F 25.2 °F 32.0 °F 87% 30.09 in 10.0 mi North 18.4 mph - N/A   Clear
4:15 AM 35.6 °F 25.5 °F 30.2 °F 81% 30.10 in 10.0 mi NNW 17.3 mph 21.9 mph N/A   Clear
4:35 AM 35.6 °F 26.6 °F 30.2 °F 81% 30.10 in 10.0 mi NNW 13.8 mph - N/A   Clear
4:55 AM 35.6 °F 25.9 °F 30.2 °F 81% 30.10 in 10.0 mi NNW 16.1 mph 21.9 mph N/A   Scattered Clouds
5:15 AM 35.6 °F 25.9 °F 30.2 °F 81% 30.11 in 10.0 mi NNW 16.1 mph - N/A   Partly Cloudy
5:35 AM 35.6 °F 25.9 °F 30.2 °F 81% 30.10 in 10.0 mi NNW 16.1 mph - N/A   Clear
5:55 AM 35.6 °F 26.2 °F 30.2 °F 81% 30.12 in 10.0 mi NNW 15.0 mph - N/A   Clear
6:15 AM 35.6 °F 26.2 °F 30.2 °F 81% 30.12 in 10.0 mi NNW 15.0 mph - N/A   Clear
6:35 AM 35.6 °F 25.5 °F 30.2 °F 81% 30.12 in 10.0 mi NNW 17.3 mph 25.3 mph N/A   Clear
6:55 AM 35.6 °F 25.2 °F 30.2 °F 81% 30.13 in 10.0 mi NNW 18.4 mph 24.2 mph N/A   Clear
7:15 AM 35.6 °F 25.2 °F 30.2 °F 81% 30.13 in 10.0 mi NNW 18.4 mph 24.2 mph N/A   Clear
7:35 AM 37.4 °F 26.4 °F 32.0 °F 81% 30.12 in 10.0 mi NNW 23.0 mph 26.5 mph N/A   Clear
7:55 AM 37.4 °F 26.9 °F 32.0 °F 81% 30.13 in 10.0 mi NNW 20.7 mph 27.6 mph N/A   Clear
8:15 AM 39.2 °F 28.5 °F 30.2 °F 70% 30.13 in 10.0 mi North 24.2 mph 27.6 mph N/A   Clear
8:35 AM 39.2 °F 28.5 °F 30.2 °F 70% 30.14 in 10.0 mi North 24.2 mph 29.9 mph N/A   Clear
9:15 AM 41.0 °F 30.0 °F 30.2 °F 65% 30.15 in 10.0 mi North 28.8 mph 42.6 mph N/A   Clear
9:35 AM 41.0 °F 30.9 °F 30.2 °F 65% 30.14 in 10.0 mi North 24.2 mph 35.7 mph N/A   Clear
9:55 AM 42.8 °F 32.7 °F 32.0 °F 66% 30.15 in 10.0 mi NNW 27.6 mph 35.7 mph N/A   Clear
10:15 AM 44.6 °F 35.3 °F 30.2 °F 57% 30.14 in 10.0 mi North 26.5 mph 33.4 mph N/A   Clear
10:35 AM 46.4 °F 37.4 °F 28.4 °F 50% 30.14 in 5.0 mi North 28.8 mph 36.8 mph N/A   Haze
10:55 AM 46.4 °F 36.5 °F 26.6 °F 46% 30.15 in 3.0 mi North 34.5 mph 42.6 mph N/A   Haze
11:15 AM 48.2 °F - 28.4 °F 46% 30.14 in 2.5 mi North 27.6 mph 41.4 mph N/A   Haze
11:35 AM 48.2 °F - 28.4 °F 46% 30.15 in 2.5 mi NNW 32.2 mph 40.3 mph N/A   Haze
11:55 AM 48.2 °F - 28.4 °F 46% 30.14 in 2.5 mi NNW 34.5 mph 41.4 mph N/A   Haze
12:15 PM 48.2 °F - 26.6 °F 43% 30.14 in 2.0 mi North 34.5 mph 42.6 mph N/A   Haze
12:35 PM 48.2 °F - 26.6 °F 43% 30.14 in 2.5 mi North 31.1 mph 42.6 mph N/A   Haze
12:55 PM 50.0 °F - 26.6 °F 40% 30.14 in 1.5 mi North 33.4 mph 39.1 mph N/A   Haze
1:15 PM 48.2 °F - 26.6 °F 43% 30.14 in 3.0 mi North 27.6 mph 40.3 mph N/A   Haze
1:35 PM 48.2 °F - 26.6 °F 43% 30.14 in 5.0 mi NNW 33.4 mph 40.3 mph N/A   Haze
3:15 PM 50.0 °F - 26.6 °F 40% 30.14 in 7.0 mi NNW 26.5 mph 36.8 mph N/A   Scattered Clouds
3:35 PM 50.0 °F - 26.6 °F 40% 30.13 in 3.0 mi NNW 32.2 mph 40.3 mph N/A   Haze
3:55 PM 50.0 °F - 26.6 °F 40% 30.13 in 3.0 mi NNW 34.5 mph 39.1 mph N/A   Haze
4:15 PM 51.8 °F - 26.6 °F 38% 30.12 in 4.0 mi North 31.1 mph 42.6 mph N/A   Haze
4:35 PM 51.8 °F - 26.6 °F 38% 30.13 in 4.0 mi NNW 27.6 mph 40.3 mph N/A   Haze
4:55 PM 51.8 °F - 26.6 °F 38% 30.13 in 7.0 mi North 29.9 mph 36.8 mph N/A   Partly Cloudy
5:15 PM 53.6 °F - 26.6 °F 35% 30.14 in 5.0 mi North 32.2 mph 38.0 mph N/A   Haze
5:35 PM 53.6 °F - 26.6 °F 35% 30.14 in 5.0 mi NNW 28.8 mph 39.1 mph N/A   Haze
5:55 PM 51.8 °F - 24.8 °F 35% 30.14 in 10.0 mi North 26.5 mph 36.8 mph N/A   Partly Cloudy
6:15 PM 51.8 °F - 26.6 °F 38% 30.14 in 10.0 mi NNW 26.5 mph 34.5 mph N/A   Scattered Clouds
6:35 PM 51.8 °F - 24.8 °F 35% 30.14 in 10.0 mi North 29.9 mph 33.4 mph N/A   Scattered Clouds
6:55 PM 51.8 °F - 24.8 °F 35% 30.14 in 10.0 mi North 21.9 mph 35.7 mph N/A   Mostly Cloudy
7:15 PM 51.8 °F - 24.8 °F 35% 30.14 in 10.0 mi North 28.8 mph 35.7 mph N/A   Mostly Cloudy
7:35 PM 50.0 °F - 24.8 °F 37% 30.14 in 10.0 mi North 20.7 mph 36.8 mph N/A   Overcast
7:55 PM 50.0 °F - 24.8 °F 37% 30.15 in 10.0 mi NNW 21.9 mph 27.6 mph N/A   Overcast
8:15 PM 50.0 °F - 26.6 °F 40% 30.15 in 10.0 mi North 23.0 mph 27.6 mph N/A   Mostly Cloudy
8:35 PM 50.0 °F - 24.8 °F 37% 30.15 in 10.0 mi North 19.6 mph 26.5 mph N/A   Overcast
8:55 PM 48.2 °F - 26.6 °F 43% 30.16 in 10.0 mi North 17.3 mph 27.6 mph N/A   Overcast
9:15 PM 48.2 °F - 26.6 °F 43% 30.16 in 10.0 mi NNW 16.1 mph - N/A   Overcast
9:35 PM 46.4 °F 40.7 °F 26.6 °F 46% 30.16 in 10.0 mi NNW 12.7 mph - N/A   Overcast
9:55 PM 46.4 °F 41.1 °F 26.6 °F 46% 30.17 in 10.0 mi NNW 11.5 mph - N/A   Overcast
10:15 PM 46.4 °F 40.7 °F 26.6 °F 46% 30.17 in 10.0 mi NNW 12.7 mph - N/A   Overcast
10:35 PM 44.6 °F 38.8 °F 26.6 °F 49% 30.17 in 10.0 mi NW 11.5 mph - N/A   Scattered Clouds
10:55 PM 44.6 °F 38.4 °F 26.6 °F 49% 30.17 in 10.0 mi NW 12.7 mph - N/A   Clear
11:15 PM 42.8 °F 36.6 °F 26.6 °F 53% 30.17 in 10.0 mi NW 11.5 mph - N/A   Clear
11:35 PM 41.0 °F 34.7 °F 26.6 °F 57% 30.17 in 10.0 mi NW 10.4 mph - N/A   Clear
11:55 PM 39.2 °F 32.5 °F 26.6 °F 61% 30.17 in 10.0 mi NW 10.4 mph - N/A   Clear